Location: Boley
(53.1150°N, 8.2269°W)
Time: 00:04:13
(UTC+00:00)

Spot 2 Rocket - Pass Details

Date: 15 May 2026
Orbit: 752 x 765 km, 98.3° (Epoch: 9 June)

Event Time Altitude Azimuth Distance (km) Brightness Sun altitude
Exits shadow 21:03:02 - 162° (SSE) 2,979 6.0 -5.3°
Reaches altitude 10° 21:04:47 10° 162° (SSE) 2,275 5.4 -5.5°
Maximum altitude 21:09:48 87° 76° (ENE) 764 3.5 -6.0°
Drops below altitude 10° 21:14:52 10° 345° (NNW) 2,298 7.0 -6.6°
Sets 21:17:11 0° 346° (NNW) 3,230 7.9 -6.8°
